Location: Lafig�re
(44.4503°N, 4.0357°E)
Time: 10:32:59
(UTC+00:00)

Tiros 1 - Pass Details

Date: 21 January 2021
Orbit: 630 x 664 km, 48.4° (Epoch: 07 March)

Event Time Altitude Azimuth Distance (km) Brightness Sun altitude
Rises 19:59:02 0° 257° (WSW) 2,918 11.4 -35.6°
Reaches altitude 10° 20:01:22 10° 260° (W) 2,008 10.4 -36.0°
Enters shadow 20:02:34 18° 262° (W) 1,553 9.7 -36.2°
